FFT1347 KONT-KLAS

Flight info

Callsign FFT1347
Flight time 0h 47m
Altitude 29000
Route SNSHN5 MISEN RNDRZ4
Aircraft A321/M-SDE3FGHIRWY/LB1

Departure

Time 2026-05-06 05:16
Airport Ontario International Airport (KONT)

Arrival

Time 2026-05-06 06:03
Airport Harry Reid International Airport (KLAS)
Time Latitude Longitude Altitude Speed Heading
2026-05-06 04:44 34.05983 -117.59579 952 ft 0 kts 360°
2026-05-06 04:58 34.05971 -117.59579 953 ft 2 kts 360°
2026-05-06 04:58 34.05959 -117.59580 952 ft 2 kts
2026-05-06 04:59 34.05946 -117.59580 952 ft 2 kts 360°
2026-05-06 04:59 34.05933 -117.59580 952 ft 2 kts 360°
2026-05-06 04:59 34.05920 -117.59582 952 ft 2 kts 24°
2026-05-06 04:59 34.05910 -117.59590 952 ft 2 kts 43°
2026-05-06 05:00 34.05902 -117.59602 952 ft 2 kts 64°
2026-05-06 05:00 34.05898 -117.59616 952 ft 1 kts 84°
2026-05-06 05:00 34.05897 -117.59622 952 ft 1 kts 94°
2026-05-06 05:00 34.05898 -117.59628 952 ft 0 kts 90°
2026-05-06 05:05 34.05898 -117.59627 952 ft 0 kts 90°
2026-05-06 05:05 34.05897 -117.59619 952 ft 1 kts 90°
2026-05-06 05:06 34.05897 -117.59605 952 ft 2 kts 90°
2026-05-06 05:06 34.05897 -117.59581 952 ft 5 kts 89°
2026-05-06 05:06 34.05898 -117.59534 952 ft 8 kts 89°
2026-05-06 05:06 34.05898 -117.59458 952 ft 12 kts 89°
2026-05-06 05:07 34.05898 -117.59361 952 ft 15 kts 90°
2026-05-06 05:07 34.05898 -117.59249 952 ft 16 kts 89°
2026-05-06 05:07 34.05899 -117.59135 952 ft 16 kts 88°
2026-05-06 05:07 34.05897 -117.59021 952 ft 16 kts 90°
2026-05-06 05:08 34.05897 -117.58909 952 ft 16 kts 89°
2026-05-06 05:08 34.05898 -117.58793 952 ft 16 kts 89°
2026-05-06 05:08 34.05899 -117.58675 952 ft 16 kts 89°
2026-05-06 05:08 34.05898 -117.58559 952 ft 16 kts 90°
2026-05-06 05:09 34.05898 -117.58443 952 ft 16 kts 89°
2026-05-06 05:09 34.05898 -117.58327 952 ft 12 kts 92°
2026-05-06 05:09 34.05859 -117.58273 952 ft 10 kts 171°
2026-05-06 05:09 34.05802 -117.58272 952 ft 8 kts 180°
2026-05-06 05:10 34.05796 -117.58272 952 ft 0 kts 180°
2026-05-06 05:14 34.05782 -117.58272 952 ft 4 kts 180°
2026-05-06 05:14 34.05743 -117.58272 952 ft 9 kts 179°
2026-05-06 05:14 34.05696 -117.58308 952 ft 12 kts 250°
2026-05-06 05:15 34.05691 -117.58390 952 ft 15 kts 270°
2026-05-06 05:15 34.05690 -117.58735 952 ft 85 kts 270°
2026-05-06 05:15 34.05691 -117.60798 1282 ft 176 kts 269°
2026-05-06 05:16 34.05692 -117.62274 1904 ft 194 kts 270°
2026-05-06 05:16 34.05723 -117.64124 2619 ft 217 kts 271°
2026-05-06 05:16 34.05760 -117.65936 3145 ft 240 kts 271°
2026-05-06 05:16 34.05798 -117.67786 3713 ft 243 kts 271°
2026-05-06 05:17 34.05857 -117.69655 4293 ft 248 kts 276°
2026-05-06 05:17 34.06113 -117.71574 4898 ft 252 kts 284°
2026-05-06 05:17 34.06540 -117.73481 5523 ft 255 kts 287°
2026-05-06 05:17 34.07002 -117.75372 6099 ft 260 kts 287°
2026-05-06 05:18 34.07490 -117.77317 6719 ft 263 kts 290°
2026-05-06 05:18 34.08226 -117.79169 7315 ft 266 kts 304°
2026-05-06 05:18 34.09332 -117.80840 7942 ft 268 kts 314°
2026-05-06 05:18 34.10552 -117.82433 8579 ft 271 kts 315°
2026-05-06 05:19 34.11755 -117.83928 9161 ft 274 kts 319°
2026-05-06 05:19 34.13051 -117.85335 9578 ft 283 kts 322°
2026-05-06 05:19 34.14424 -117.86739 10107 ft 287 kts 323°
2026-05-06 05:19 34.15832 -117.88171 10701 ft 290 kts 322°
2026-05-06 05:20 34.17242 -117.89614 11303 ft 292 kts 323°
2026-05-06 05:20 34.18660 -117.91074 11895 ft 294 kts 323°
2026-05-06 05:20 34.20092 -117.92554 12480 ft 295 kts 323°
2026-05-06 05:20 34.21553 -117.94063 13056 ft 297 kts 322°
2026-05-06 05:21 34.23038 -117.95603 13652 ft 299 kts 322°
2026-05-06 05:21 34.24637 -117.96973 14182 ft 298 kts 339°
2026-05-06 05:21 34.26527 -117.97471 14679 ft 295 kts
2026-05-06 05:21 34.28429 -117.97008 15240 ft 293 kts 24°
2026-05-06 05:22 34.30178 -117.95921 15799 ft 294 kts 29°
2026-05-06 05:22 34.31921 -117.94777 16342 ft 296 kts 28°
2026-05-06 05:22 34.33653 -117.93652 16854 ft 298 kts 28°
2026-05-06 05:22 34.35401 -117.92378 17173 ft 307 kts 40°
2026-05-06 05:23 34.36758 -117.90367 17398 ft 320 kts 60°
2026-05-06 05:23 34.37430 -117.87769 17608 ft 336 kts 80°
2026-05-06 05:23 34.37798 -117.82194 18059 ft 357 kts 82°
2026-05-06 05:24 34.37980 -117.79370 18281 ft 366 kts 82°
2026-05-06 05:24 34.38171 -117.76527 18598 ft 371 kts 82°
2026-05-06 05:24 34.38374 -117.73620 19007 ft 374 kts 82°
2026-05-06 05:24 34.38585 -117.70594 19468 ft 375 kts 82°
2026-05-06 05:25 34.38796 -117.67609 19939 ft 375 kts 82°
2026-05-06 05:25 34.39009 -117.64613 20409 ft 376 kts 82°
2026-05-06 05:25 34.39388 -117.61623 20831 ft 375 kts 73°
2026-05-06 05:25 34.40232 -117.58772 21233 ft 373 kts 63°
2026-05-06 05:26 34.41489 -117.56185 21661 ft 372 kts 53°
2026-05-06 05:26 34.42924 -117.53809 22132 ft 372 kts 52°
2026-05-06 05:26 34.44406 -117.51402 22538 ft 373 kts 52°
2026-05-06 05:26 34.45907 -117.48972 22914 ft 375 kts 52°
2026-05-06 05:27 34.47391 -117.46558 23323 ft 375 kts 52°
2026-05-06 05:27 34.48888 -117.44117 23743 ft 375 kts 52°
2026-05-06 05:27 34.50317 -117.41775 24135 ft 375 kts 52°
2026-05-06 05:27 34.51752 -117.39430 24377 ft 379 kts 53°
2026-05-06 05:28 34.53248 -117.36975 24515 ft 385 kts 53°
2026-05-06 05:28 34.54721 -117.34556 24718 ft 388 kts 53°
2026-05-06 05:28 34.56272 -117.32010 25051 ft 389 kts 53°
2026-05-06 05:28 34.57797 -117.29499 25367 ft 390 kts 53°
2026-05-06 05:29 34.59289 -117.27043 25658 ft 391 kts 53°
2026-05-06 05:29 34.60785 -117.24577 25977 ft 392 kts 53°
2026-05-06 05:29 34.62322 -117.22041 26267 ft 393 kts 53°
2026-05-06 05:29 34.63925 -117.19395 26565 ft 394 kts 53°
2026-05-06 05:30 34.65505 -117.16794 26864 ft 395 kts 53°
2026-05-06 05:30 34.67099 -117.14158 27148 ft 396 kts 53°
2026-05-06 05:30 34.68708 -117.11496 27428 ft 397 kts 53°
2026-05-06 05:30 34.70315 -117.08840 27747 ft 396 kts 53°
2026-05-06 05:31 34.71917 -117.06181 28050 ft 396 kts 53°
2026-05-06 05:31 34.73510 -117.03542 28323 ft 396 kts 53°
2026-05-06 05:31 34.75135 -117.00853 28616 ft 396 kts 53°
2026-05-06 05:31 34.76733 -116.98197 28902 ft 396 kts 53°
2026-05-06 05:32 34.78339 -116.95530 29014 ft 395 kts 53°
2026-05-06 05:32 34.79902 -116.92932 29021 ft 396 kts 53°
2026-05-06 05:32 34.83016 -116.87750 29028 ft 397 kts 53°
2026-05-06 05:33 34.86120 -116.82568 29027 ft 395 kts 53°
2026-05-06 05:33 34.89113 -116.77572 29027 ft 394 kts 53°
2026-05-06 05:34 34.92099 -116.72572 29019 ft 394 kts 53°
2026-05-06 05:34 34.94958 -116.67568 28415 ft 389 kts 54°
2026-05-06 05:35 34.96336 -116.65115 27667 ft 389 kts 55°
2026-05-06 05:35 34.97758 -116.62592 26917 ft 389 kts 55°
2026-05-06 05:35 34.99214 -116.60001 26234 ft 387 kts 54°
2026-05-06 05:35 35.00647 -116.57453 25555 ft 385 kts 55°
2026-05-06 05:36 35.02074 -116.54914 24856 ft 384 kts 55°
2026-05-06 05:36 35.03501 -116.52377 24279 ft 382 kts 54°
2026-05-06 05:36 35.04929 -116.49831 24014 ft 382 kts 54°
2026-05-06 05:36 35.06358 -116.47289 24002 ft 384 kts 55°
2026-05-06 05:37 35.07773 -116.44777 23995 ft 385 kts 55°
2026-05-06 05:37 35.09264 -116.42239 23985 ft 385 kts 52°
2026-05-06 05:37 35.10828 -116.39835 23993 ft 386 kts 50°
2026-05-06 05:37 35.12495 -116.37507 23984 ft 385 kts 47°
2026-05-06 05:38 35.14238 -116.35224 23984 ft 385 kts 47°
2026-05-06 05:38 35.15976 -116.32970 23990 ft 385 kts 47°
2026-05-06 05:38 35.17759 -116.30665 23721 ft 387 kts 47°
2026-05-06 05:38 35.19572 -116.28320 22947 ft 387 kts 47°
2026-05-06 05:39 35.21383 -116.25975 22192 ft 387 kts 47°
2026-05-06 05:39 35.23181 -116.23630 21445 ft 387 kts 48°
2026-05-06 05:39 35.24936 -116.21247 20718 ft 385 kts 48°
2026-05-06 05:39 35.26687 -116.18830 20261 ft 378 kts 48°
2026-05-06 05:40 35.28398 -116.16471 19699 ft 374 kts 48°
2026-05-06 05:40 35.30078 -116.14162 19111 ft 372 kts 47°
2026-05-06 05:40 35.31768 -116.11839 18498 ft 370 kts 47°
2026-05-06 05:40 35.33459 -116.09522 17898 ft 368 kts 47°
2026-05-06 05:41 35.35144 -116.07210 17307 ft 367 kts 47°
2026-05-06 05:41 35.36796 -116.04945 16749 ft 364 kts 47°
2026-05-06 05:41 35.38454 -116.02668 16232 ft 361 kts 47°
2026-05-06 05:41 35.40082 -116.00428 15715 ft 358 kts 47°
2026-05-06 05:42 35.41717 -115.98177 15200 ft 355 kts 47°
2026-05-06 05:42 35.43316 -115.95969 14691 ft 352 kts 47°
2026-05-06 05:42 35.44910 -115.93771 14233 ft 348 kts 47°
2026-05-06 05:42 35.46487 -115.91594 14046 ft 347 kts 47°
2026-05-06 05:43 35.48063 -115.89419 14035 ft 349 kts 47°
2026-05-06 05:43 35.49638 -115.87241 14041 ft 345 kts 47°
2026-05-06 05:43 35.51161 -115.85136 13930 ft 332 kts 47°
2026-05-06 05:43 35.52630 -115.83099 13716 ft 322 kts 47°
2026-05-06 05:44 35.54037 -115.81150 13500 ft 312 kts 46°
2026-05-06 05:44 35.55423 -115.79228 13279 ft 303 kts 46°
2026-05-06 05:44 35.56764 -115.77367 13086 ft 293 kts 46°
2026-05-06 05:44 35.58055 -115.75577 13048 ft 282 kts 46°
2026-05-06 05:45 35.59325 -115.73820 13045 ft 281 kts 46°
2026-05-06 05:45 35.60613 -115.72078 13041 ft 280 kts 46°
2026-05-06 05:45 35.61880 -115.70374 13045 ft 279 kts 45°
2026-05-06 05:45 35.63142 -115.68677 13044 ft 280 kts 46°
2026-05-06 05:46 35.64394 -115.66989 13049 ft 280 kts 46°
2026-05-06 05:46 35.65644 -115.65302 13058 ft 280 kts 46°
2026-05-06 05:46 35.66890 -115.63616 13054 ft 280 kts 46°
2026-05-06 05:46 35.68156 -115.61904 13053 ft 281 kts 46°
2026-05-06 05:47 35.69407 -115.60210 13064 ft 280 kts 46°
2026-05-06 05:47 35.70635 -115.58548 13064 ft 280 kts 46°
2026-05-06 05:47 35.71873 -115.56917 13055 ft 279 kts 42°
2026-05-06 05:47 35.73249 -115.55450 13054 ft 278 kts 36°
2026-05-06 05:48 35.74774 -115.54196 13060 ft 277 kts 30°
2026-05-06 05:48 35.76340 -115.53082 13059 ft 277 kts 29°
2026-05-06 05:48 35.77916 -115.51988 13064 ft 277 kts 28°
2026-05-06 05:48 35.79460 -115.50916 13071 ft 278 kts 28°
2026-05-06 05:49 35.80999 -115.49844 13073 ft 278 kts 29°
2026-05-06 05:49 35.82562 -115.48750 13066 ft 278 kts 29°
2026-05-06 05:49 35.84108 -115.47668 13057 ft 278 kts 29°
2026-05-06 05:49 35.85653 -115.46585 13066 ft 278 kts 29°
2026-05-06 05:50 35.87196 -115.45501 13057 ft 278 kts 29°
2026-05-06 05:50 35.88750 -115.44410 12985 ft 277 kts 28°
2026-05-06 05:50 35.90385 -115.43262 12618 ft 277 kts 28°
2026-05-06 05:50 35.91983 -115.42142 12258 ft 275 kts 28°
2026-05-06 05:51 35.93576 -115.41031 11898 ft 274 kts 28°
2026-05-06 05:51 35.95190 -115.39904 11531 ft 274 kts 28°
2026-05-06 05:51 35.96767 -115.38804 11189 ft 274 kts 28°
2026-05-06 05:51 35.98342 -115.37705 11056 ft 274 kts 28°
2026-05-06 05:52 35.99872 -115.36557 11042 ft 276 kts 37°
2026-05-06 05:52 36.01006 -115.34876 11037 ft 281 kts 60°
2026-05-06 05:52 36.01521 -115.32712 10988 ft 283 kts 82°
2026-05-06 05:52 36.01469 -115.30434 10678 ft 284 kts 90°
2026-05-06 05:53 36.01329 -115.28153 10191 ft 287 kts 90°
2026-05-06 05:53 36.01188 -115.25917 9994 ft 279 kts 90°
2026-05-06 05:53 36.01055 -115.23673 9817 ft 271 kts 90°
2026-05-06 05:53 36.00936 -115.21516 9642 ft 263 kts 90°
2026-05-06 05:54 36.00825 -115.19430 9478 ft 256 kts 90°
2026-05-06 05:54 36.00721 -115.17403 9314 ft 248 kts 89°
2026-05-06 05:54 36.00624 -115.15465 9109 ft 243 kts 89°
2026-05-06 05:54 36.00529 -115.13528 9032 ft 242 kts 90°
2026-05-06 05:55 36.00434 -115.11622 8918 ft 239 kts 90°
2026-05-06 05:55 36.00339 -115.09696 8581 ft 240 kts 90°
2026-05-06 05:55 36.00243 -115.07754 8244 ft 241 kts 91°
2026-05-06 05:55 36.00142 -115.05795 7956 ft 239 kts 91°
2026-05-06 05:56 36.00044 -115.03889 7656 ft 238 kts 91°
2026-05-06 05:56 35.99945 -115.01965 7357 ft 237 kts 91°
2026-05-06 05:56 35.99886 -115.00042 7055 ft 236 kts 89°
2026-05-06 05:56 35.99876 -114.98128 6754 ft 235 kts 89°
2026-05-06 05:57 35.99870 -114.96238 6453 ft 234 kts 89°
2026-05-06 05:57 35.99869 -114.94330 6139 ft 234 kts 88°
2026-05-06 05:57 36.00180 -114.92443 5826 ft 232 kts 58°
2026-05-06 05:57 36.01277 -114.91071 5833 ft 233 kts 31°
2026-05-06 05:58 36.02638 -114.90129 5788 ft 227 kts 23°
2026-05-06 05:58 36.04137 -114.89801 5528 ft 220 kts 347°
2026-05-06 05:58 36.05476 -114.90539 5229 ft 216 kts 324°
2026-05-06 05:58 36.06643 -114.91554 5021 ft 214 kts 312°
2026-05-06 05:59 36.07303 -114.92962 4983 ft 195 kts 280°
2026-05-06 05:59 36.07438 -114.94476 4899 ft 183 kts 270°
2026-05-06 05:59 36.07433 -114.95936 4638 ft 182 kts 267°
2026-05-06 05:59 36.07404 -114.97432 4334 ft 178 kts 267°
2026-05-06 06:00 36.07386 -114.98854 4114 ft 167 kts 268°
2026-05-06 06:00 36.07379 -115.00171 3932 ft 163 kts 268°
2026-05-06 06:00 36.07377 -115.01538 3746 ft 162 kts 268°
2026-05-06 06:00 36.07376 -115.02833 3564 ft 162 kts 268°
2026-05-06 06:01 36.07375 -115.04111 3381 ft 161 kts 268°
2026-05-06 06:01 36.07374 -115.05408 3217 ft 159 kts 268°
2026-05-06 06:01 36.07373 -115.06672 3005 ft 151 kts 268°
2026-05-06 06:01 36.07373 -115.07809 2804 ft 145 kts 267°
2026-05-06 06:02 36.07371 -115.08941 2643 ft 145 kts 267°
2026-05-06 06:02 36.07370 -115.10052 2482 ft 145 kts 267°
2026-05-06 06:02 36.07369 -115.11170 2319 ft 146 kts 267°
2026-05-06 06:02 36.07368 -115.12298 2153 ft 146 kts 267°
2026-05-06 06:03 36.07372 -115.13435 2083 ft 138 kts 268°
2026-05-06 06:03 36.07364 -115.14394 2106 ft 90 kts 270°
2026-05-06 06:03 36.07397 -115.14871 2122 ft 31 kts 294°
2026-05-06 06:03 36.07456 -115.15016 2127 ft 17 kts 297°
2026-05-06 06:04 36.07505 -115.15102 2130 ft 11 kts 316°
2026-05-06 06:04 36.07530 -115.15128 2131 ft 0 kts 325°
2026-05-06 06:05 36.07536 -115.15133 2131 ft 3 kts 327°
2026-05-06 06:05 36.07574 -115.15158 2132 ft 10 kts 334°
2026-05-06 06:06 36.07660 -115.15207 2131 ft 19 kts 335°
2026-05-06 06:06 36.07772 -115.15273 2133 ft 18 kts 333°
2026-05-06 06:06 36.07863 -115.15297 2130 ft 12 kts 43°
2026-05-06 06:06 36.07879 -115.15189 2125 ft 16 kts 93°
2026-05-06 06:07 36.07872 -115.15048 2120 ft 19 kts 94°
2026-05-06 06:07 36.07858 -115.14884 2115 ft 21 kts 96°
2026-05-06 06:07 36.07849 -115.14700 2110 ft 23 kts 93°
2026-05-06 06:07 36.07837 -115.14503 2104 ft 25 kts 95°
2026-05-06 06:08 36.07826 -115.14305 2097 ft 19 kts 83°
2026-05-06 06:08 36.07904 -115.14243 2094 ft 16 kts
2026-05-06 06:08 36.08015 -115.14243 2092 ft 18 kts
2026-05-06 06:08 36.08136 -115.14241 2089 ft 19 kts 360°
2026-05-06 06:09 36.08246 -115.14211 2086 ft 17 kts 42°
2026-05-06 06:09 36.08324 -115.14114 2081 ft 10 kts 45°
2026-05-06 06:09 36.08369 -115.14059 2079 ft 9 kts 45°
2026-05-06 06:09 36.08375 -115.14024 2077 ft 3 kts 134°
2026-05-06 06:10 36.08357 -115.14000 2077 ft 4 kts 136°
2026-05-06 06:10 36.08334 -115.13978 2077 ft 4 kts 142°
2026-05-06 06:10 36.08329 -115.13973 2077 ft 0 kts 143°